Location: Caltech
(34.1382°N, 118.1253°W)
Time: 18:51:58
(UTC-07:00)

Cosmos 1697 Rocket - Visible Passes

Search period start: 31 August 2015 00:00
Search period end: 10 September 2015 00:00
Orbit: 832 x 844 km, 71.0° (Epoch: 30 August)

Date Brightness Start Highest point End Pass type
(mag) Time Alt. Az. Time Alt. Az. Time Alt. Az.
07 Sep 5.1 21:59:19 11° NNE 21:59:19 11° NNE 21:59:30 10° NNE visible
07 Sep 5.6 23:41:00 11° NNW 23:41:00 11° NNW 23:41:17 10° NNW visible
08 Sep 4.9 21:42:41 14° NNE 21:42:41 14° NNE 21:43:22 10° NNE visible
08 Sep 5.5 23:24:21 13° NNW 23:24:21 13° NNW 23:25:25 10° NNW visible
09 Sep 4.5 21:25:41 19° NNE 21:25:41 19° NNE 21:27:14 10° NNE visible
09 Sep 5.3 23:07:18 15° NW 23:07:18 15° NW 23:09:32 10° NNW visible
